Weather History for Molokai, HI

Change the Weather History Date:

Friday, December 27, 2013

  Actual Average Record
Temperature  
Mean Temperature 74 °F -  
Max Temperature 78 °F 78 °F 84 °F (1987)
Min Temperature 69 °F 64 °F 58 °F (1961)
Cooling Degree Days 8    
Growing Degree Days 24 (Base 50)    
Moisture  
Dew Point 67 °F    
Average Humidity 79    
Maximum Humidity 94    
Minimum Humidity 65    
Precipitation  
Precipitation 0.00 in - - ()
Sea Level Pressure  
Sea Level Pressure 29.97 in    
Wind  
Wind Speed 10 mph (NE)    
Max Wind Speed 17 mph    
Max Gust Speed 26 mph    
Visibility 10 miles    
Events Rain    
Averages and records for this station are not official NWS values.
T = Trace of Precipitation, MM = Missing Value Source: NWS Daily Summary

Daily Weather History Graph

Daily Weather History Graph

Search for Another Location

Airport:

Trip Planner

Search our weather history database for the weather conditions in past years. The results will help you decide how hot, cold, wet, or windy it might be!

Date:

Astronomy

Dec. 27, 2013 Rise Set
Actual Time 7:04 AM HST 5:55 PM HST
Civil Twilight 6:39 AM HST 6:19 PM HST
Nautical Twilight 6:12 AM HST 6:47 PM HST
Astronomical Twilight 5:44 AM HST 7:14 PM HST
Moon 2:10 AM HST (12/27) 1:53 PM HST (12/27)
Length of Visible Light 11h 39m
Length of Day
10h 51m
Waning Crescent, 26% of the Moon is Illuminated
Dec 27
Waning Crescent
Jan 1
New
Jan 7
First Quarter
Jan 15
Full
Jan 23
Last Quarter

Hourly Weather History & Observations

Time (HST) Temp. Dew Point Humidity Pressure Visibility Wind Dir Wind Speed Gust Speed Precip Events Conditions
12:49 AM 73.4 °F 64.4 °F 73% 29.99 in 10.0 mi NNE 6.9 mph 20.7 mph N/A   Overcast
12:54 AM 73.0 °F 66.0 °F 79% 29.99 in 10.0 mi NNE 10.4 mph 19.6 mph N/A   Overcast
1:18 AM 73.4 °F 66.2 °F 78% 29.98 in 10.0 mi NNE 10.4 mph 23.0 mph N/A   Overcast
1:54 AM 73.0 °F 66.0 °F 79% 29.98 in 10.0 mi NE 8.1 mph - N/A   Mostly Cloudy
2:54 AM 72.0 °F 63.0 °F 73% 29.97 in 10.0 mi NE 6.9 mph - N/A   Mostly Cloudy
3:54 AM 72.0 °F 64.0 °F 76% 29.96 in 10.0 mi NE 10.4 mph 18.4 mph N/A   Mostly Cloudy
4:31 AM 71.6 °F 66.2 °F 83% 29.95 in 10.0 mi NNE 10.4 mph 17.3 mph N/A   Mostly Cloudy
4:54 AM 72.0 °F 64.9 °F 78% 29.96 in 10.0 mi NE 11.5 mph 19.6 mph N/A   Overcast
5:54 AM 72.0 °F 64.0 °F 76% 29.97 in 10.0 mi NE 10.4 mph 16.1 mph N/A   Mostly Cloudy
6:02 AM 71.6 °F 64.4 °F 78% 29.96 in 10.0 mi NE 8.1 mph 16.1 mph N/A   Mostly Cloudy
6:54 AM 72.0 °F 64.9 °F 78% 29.99 in 10.0 mi NNE 5.8 mph 20.7 mph N/A   Scattered Clouds
7:19 AM 71.6 °F 64.4 °F 78% 29.98 in 10.0 mi NE 10.4 mph 17.3 mph N/A   Mostly Cloudy
7:54 AM 72.0 °F 66.9 °F 84% 30.01 in 10.0 mi NNE 13.8 mph 26.5 mph N/A   Mostly Cloudy
8:01 AM 71.6 °F 66.2 °F 83% 30.00 in 10.0 mi NNE 9.2 mph 20.7 mph N/A   Mostly Cloudy
8:54 AM 72.0 °F 68.0 °F 87% 30.02 in 10.0 mi NNE 15.0 mph 20.7 mph 0.00 in Rain Light Rain
9:54 AM 75.9 °F 68.0 °F 76% 30.03 in 10.0 mi Variable 5.8 mph - 0.00 in   Scattered Clouds
10:54 AM 75.9 °F 68.0 °F 76% 30.02 in 10.0 mi NE 8.1 mph 18.4 mph N/A   Scattered Clouds
11:54 AM 78.1 °F 68.0 °F 71% 30.00 in 10.0 mi NNE 16.1 mph 25.3 mph N/A   Scattered Clouds
12:54 PM 78.1 °F 68.0 °F 71% 29.95 in 10.0 mi NNE 17.3 mph 24.2 mph N/A   Scattered Clouds
1:01 PM 78.8 °F 66.2 °F 65% 29.95 in 10.0 mi NE 16.1 mph 26.5 mph N/A   Mostly Cloudy
1:54 PM 78.1 °F 68.0 °F 71% 29.92 in 10.0 mi NNE 13.8 mph 25.3 mph N/A   Mostly Cloudy
2:54 PM 77.0 °F 68.0 °F 74% 29.90 in 10.0 mi NE 12.7 mph 21.9 mph N/A   Scattered Clouds
3:01 PM 75.2 °F 68.0 °F 78% 29.89 in 10.0 mi NNE 16.1 mph 24.2 mph N/A   Mostly Cloudy
3:36 PM 78.8 °F 68.0 °F 69% 29.90 in 10.0 mi NE 17.3 mph 25.3 mph N/A   Scattered Clouds
3:54 PM 77.0 °F 68.0 °F 74% 29.90 in 10.0 mi NE 13.8 mph 25.3 mph N/A   Scattered Clouds
4:54 PM 75.9 °F 66.0 °F 71% 29.92 in 10.0 mi NE 16.1 mph 26.5 mph N/A   Scattered Clouds
5:54 PM 73.9 °F 66.9 °F 79% 29.93 in 10.0 mi NE 13.8 mph 20.7 mph N/A   Scattered Clouds
6:54 PM 73.9 °F 68.0 °F 82% 29.96 in 10.0 mi NE 16.1 mph 23.0 mph N/A   Scattered Clouds
7:01 PM 73.4 °F 68.0 °F 83% 29.95 in 10.0 mi NE 10.4 mph 23.0 mph N/A   Overcast
7:54 PM 73.9 °F 68.0 °F 82% 29.98 in 10.0 mi NE 12.7 mph 23.0 mph N/A   Overcast
8:54 PM 73.9 °F 68.0 °F 82% 30.00 in 10.0 mi NNE 11.5 mph 20.7 mph N/A   Mostly Cloudy
9:24 PM 71.6 °F 68.0 °F 88% 30.00 in 8.0 mi NE 12.7 mph 25.3 mph 0.00 in Rain Light Rain
9:54 PM 71.1 °F 68.0 °F 90% 30.01 in 10.0 mi ENE 9.2 mph - 0.00 in   Overcast
10:01 PM 69.8 °F 68.0 °F 94% 30.00 in 10.0 mi ENE 8.1 mph - N/A   Mostly Cloudy
10:54 PM 72.0 °F 69.1 °F 91% 30.00 in 10.0 mi Variable 6.9 mph - N/A   Partly Cloudy
11:08 PM 73.4 °F 69.8 °F 88% 29.99 in 10.0 mi NNE 9.2 mph - N/A   Mostly Cloudy
11:50 PM 73.4 °F 69.8 °F 88% 29.98 in 10.0 mi NE 11.5 mph 25.3 mph N/A   Scattered Clouds
11:54 PM 73.0 °F 70.0 °F 90% 29.99 in 10.0 mi NE 10.4 mph - N/A   Scattered Clouds